Location: Recife
(8.0585°S, 34.8848°W)
Time: 07:42:25
(UTC-03:00)

Courier 1B - Pass Details

Date: 16 April 2026
Orbit: 962 x 1209 km, 28.3° (Epoch: 13 May)

Event Time Altitude Azimuth Distance (km) Brightness Sun altitude
Rises 15:57:05 0° 256° (WSW) 3,877 11.7 18.5°
Reaches altitude 10° 16:00:08 10° 264° (W) 2,878 11.6 17.7°
Maximum altitude 16:06:26 36° 328° (NNW) 1,540 9.4 16.2°
Drops below altitude 10° 16:12:26 10° 34° (NNE) 2,728 9.7 14.8°
Sets 16:15:15 0° 42° (NE) 3,652 10.2 14.1°
